KINEIS-3E

Last updated on Mon Dec 15 2025 00:02:49 GMT+0000 (Coordinated Universal Time)

1 61222U 24172C 25348.19439580 .00003117 00000+0 50054-3 0 9998 2 61222 98.0264 75.2778 0001231 81.3396 278.7951 14.72334221 66131
UTC large
Height (km)
Speed (km/s)
/
Latitude / Longitude
Inclination (degrees)
Orbital Period (minutes)
Azimuth
Elevation
Range (km)
Doppler Factor

Next 0 passes for location: London (51.5072 / 0.1276)

Sorry there are no passes over London.